Location: Freiburg+im+Breisgau
(48.0359°N, 7.8195°E)
Time: 16:00:23
(UTC+01:00)

ISS - Pass Details

Date: 16 November 2017
Orbit: 402 x 407 km, 51.6° (Epoch: 22 November)

Event Time Altitude Azimuth Distance (km) Brightness Sun altitude
Exits shadow 05:38:09 36° 188° (S) 652 -2.9 -19.7°
Drops below altitude 10° 05:40:42 10° 143° (SE) 1,449 -0.4 -19.2°
Sets 05:42:50 0° 135° (SE) 2,305 0.8 -18.9°
